[[{"header":{"parameterUnit":"m.s-1","parameterCategory":1,"la1":30.2992,"la2":30.254,"lo1":-89.0895,"lo2":-89.0443,"dy":0.0025,"dx":0.0025,"nx":19,"ny":19,"refTime":"2026-04-15T21:00:00:Z","depth":0,"parameterNumber":2,"parameterNumberName":"U-component_of_WINDS"},"data":[0,0,0,-0.0407,-0.0406,-0.0368,-0.0367,-0.032,-0.0319,0,0,0,0,0,0,0,0,0,0,0,-0.0419,-0.0419,-0.0407,-0.0406,-0.0368,-0.0367,-0.032,-0.0319,0,0,0,0,0,0,0,0,0,0,0,-0.0419,-0.0419,-0.0419,-0.0406,-0.0368,-0.0367,-0.032,-0.0349,0,0,0,0,0,0,0,0,0,0,-0.0386,-0.0397,-0.0419,-0.0419,-0.0406,-0.0368,-0.0367,-0.035,-0.0347,-0.0338,0,-0.0329,0,-0.0324,-0.0316,-0.0316,0,0,0,-0.0406,-0.04,-0.0389,-0.0419,-0.0406,-0.0368,-0.0385,-0.0348,-0.0345,-0.0334,-0.0329,-0.0327,-0.0323,-0.0316,-0.0316,-0.0264,-0.0264,0,0,-0.0408,-0.0413,-0.0392,-0.0387,-0.0392,-0.0386,-0.0384,-0.0346,-0.0341,-0.0329,-0.0326,-0.0322,-0.0316,-0.0315,-0.0264,-0.0264,0,0,0,-0.0415,-0.0414,-0.0404,-0.0389,-0.0382,-0.0385,-0.0382,-0.0343,-0.0339,-0.0325,-0.0321,-0.0315,-0.0315,-0.0264,-0.0264,-0.0256,0,0,0,-0.0416,-0.0418,-0.0405,-0.0407,-0.0382,-0.0362,-0.038,-0.0342,-0.0337,-0.0322,-0.0315,-0.0314,-0.0264,-0.0264,-0.0257,-0.0252,0,0,0,-0.0422,-0.0418,-0.0413,-0.0408,-0.0391,-0.0362,-0.0356,-0.0341,-0.0335,-0.0316,-0.0314,-0.0265,-0.0264,-0.0258,-0.0253,-0.024,0,0,0,-0.0429,-0.0407,-0.0413,-0.0387,-0.0391,-0.0358,-0.0356,-0.0331,-0.0314,-0.0315,-0.0264,-0.0264,-0.0258,-0.0254,-0.0241,-0.023,-0.0225,0,0,-0.0403,-0.0404,-0.0388,-0.0392,-0.0359,-0.0363,-0.0329,-0.0309,-0.0303,-0.0278,-0.0276,-0.0257,-0.0253,-0.024,-0.02,-0.0196,0,0,0,-0.0381,-0.037,-0.036,-0.0344,-0.0328,-0.0314,-0.03,-0.0293,-0.027,-0.0291,-0.0248,-0.0246,-0.0238,-0.0233,-0.023,-0.0223,-0.0261,-0.0262,-0.0262,-0.0351,-0.0345,-0.0319,-0.0308,-0.0293,-0.0278,-0.0265,-0.0253,-0.0251,-0.0242,-0.0234,-0.021,-0.0204,-0.0201,-0.0194,-0.0227,-0.0227,-0.0227,-0.0227,-0.0313,-0.0296,-0.0295,-0.0269,-0.0264,-0.0242,-0.0227,-0.0227,-0.0207,-0.0215,-0.0208,-0.0217,-0.0198,-0.0191,-0.0227,-0.0227,-0.0227,-0.0227,-0.0227,-0.0293,-0.0284,-0.0275,-0.0251,-0.0234,-0.0224,-0.0205,-0.02,-0.0196,-0.0189,-0.018,-0.0181,-0.018,-0.0185,-0.0185,-0.0185,-0.0185,-0.0185,-0.0185,-0.0275,-0.0266,-0.0249,-0.0231,-0.022,-0.0206,-0.0191,-0.0181,-0.0168,-0.0166,-0.0166,-0.0166,-0.0197,-0.0205,-0.0183,-0.0184,-0.0184,-0.0184,-0.0184,-0.0239,-0.0246,-0.0221,-0.021,-0.0189,-0.0172,-0.0167,-0.0146,-0.0137,-0.0128,-0.0129,-0.0153,-0.0153,-0.0155,-0.0162,-0.013,-0.013,-0.013,-0.013,-0.0222,-0.0222,-0.0195,-0.0178,-0.0161,-0.0154,-0.0127,-0.0116,-0.0105,-0.01,-0.0103,-0.0112,-0.0114,-0.0113,-0.0116,-0.0122,-0.0082,-0.0082,-0.0082,-0.02,-0.0198,-0.0175,-0.0164,-0.0148,-0.0133,-0.0108,-0.0089,-0.0079,-0.008,-0.0095,-0.0097,-0.011,-0.0115,-0.0115,-0.012,-0.0131,0,0]},{"header":{"parameterUnit":"m.s-1","parameterCategory":1,"la1":30.2992,"la2":30.254,"lo1":-89.0895,"lo2":-89.0443,"dy":0.0025,"dx":0.0025,"nx":19,"ny":19,"refTime":"2026-04-15T21:00:00:Z","depth":0,"parameterNumber":3,"parameterNumberName":"V-component_of_WINDS"},"data":[0,0,0,3.7148,3.7147,3.7108,3.7108,3.7087,3.7087,0,0,0,0,0,0,0,0,0,0,0,3.7178,3.7178,3.7148,3.7147,3.7108,3.7108,3.7087,3.7087,0,0,0,0,0,0,0,0,0,0,0,3.7177,3.7178,3.7179,3.7147,3.7108,3.7108,3.7087,3.7106,0,0,0,0,0,0,0,0,0,0,3.7139,3.7185,3.7178,3.7179,3.7147,3.7108,3.7108,3.7106,3.7105,3.7118,0,3.7134,0,3.7111,3.7088,3.7088,0,0,0,3.7134,3.7186,3.7159,3.7179,3.7147,3.7108,3.7122,3.7105,3.7104,3.7116,3.7134,3.7132,3.711,3.7088,3.7088,3.7208,3.7209,0,0,3.7136,3.718,3.716,3.7159,3.7167,3.7123,3.7121,3.7104,3.7126,3.7133,3.7131,3.711,3.7088,3.7088,3.7207,3.7208,0,0,0,3.7151,3.7183,3.7155,3.7161,3.7151,3.7122,3.712,3.7127,3.7114,3.713,3.711,3.7088,3.7088,3.7205,3.7207,3.731,0,0,0,3.7152,3.7191,3.7157,3.7184,3.7152,3.7139,3.7144,3.7115,3.7112,3.711,3.7088,3.7088,3.7204,3.7206,3.7304,3.7351,0,0,0,3.7174,3.7194,3.7194,3.7186,3.7171,3.7138,3.7124,3.7113,3.71,3.7088,3.7088,3.7203,3.7206,3.7299,3.7343,3.7396,0,0,0,3.721,3.7286,3.7197,3.7274,3.7172,3.7202,3.7123,3.7143,3.7145,3.7088,3.7204,3.7207,3.7298,3.7337,3.7391,3.7449,3.7477,0,0,3.7331,3.7303,3.7344,3.7263,3.7321,3.7204,3.7277,3.7236,3.7194,3.7205,3.7208,3.7306,3.7342,3.7395,3.7621,3.7644,0,0,0,3.7397,3.7428,3.7434,3.7438,3.7409,3.7387,3.7331,3.7316,3.7323,3.7209,3.7338,3.7358,3.7387,3.7413,3.7433,3.7455,3.7221,3.722,3.722,3.7632,3.7575,3.764,3.7577,3.7582,3.7523,3.7522,3.7491,3.7431,3.7463,3.7466,3.761,3.7642,3.7656,3.768,3.7492,3.7492,3.7492,3.7493,3.7804,3.7838,3.7757,3.7791,3.7729,3.7757,3.7703,3.766,3.7676,3.7603,3.7626,3.7551,3.7683,3.7701,3.75,3.7499,3.7498,3.7497,3.7497,3.7951,3.7958,3.7938,3.7938,3.7944,3.7878,3.7898,3.7841,3.7787,3.781,3.7807,3.7805,3.7796,3.7813,3.7813,3.7814,3.7814,3.7814,3.7815,3.8112,3.8087,3.8111,3.8087,3.8082,3.8068,3.801,3.8003,3.7981,3.7938,3.7937,3.7875,3.7707,3.7666,3.7822,3.7821,3.782,3.7819,3.7819,3.8307,3.8254,3.8292,3.8287,3.8254,3.8264,3.8191,3.8183,3.8169,3.818,3.8112,3.7998,3.7964,3.7948,3.7914,3.8125,3.8125,3.8125,3.8125,3.8432,3.841,3.8435,3.8431,3.8421,3.8359,3.8402,3.8358,3.8303,3.8291,3.8252,3.8202,3.8188,3.8162,3.8142,3.8109,3.8364,3.8365,3.8365,3.8549,3.8523,3.8571,3.8518,3.8488,3.8463,3.8502,3.8501,3.8427,3.8373,3.828,3.827,3.8188,3.8164,3.8109,3.8078,3.8016,0,0]}]]